HAIYANG 2C

导读

HAIYANG 2C(海洋二号C卫星)是中国于2020年9月21日发射的第三颗海洋动力环境卫星,也是中国首颗运行于倾斜轨道的大型遥感卫星。它集成主被动微波遥感器,具备全天候全天时全球探测能力,可精准获取海面风场、浪高、海高等参数,与海洋二号B星组网后,构建起中国首个海洋动力环境监测网,为海洋防灾减灾、资源开发与科学研究提供关键支撑。

基本信息
目录编号:
46469
目录名称:
HAIYANG 2C
国际标识:
2020-066A
轨道中心:
EARTH
卫星名称:
HAIYANG 2C
卫星全名:
--
卫星状态:
在轨 (已飞行2181 天)
发射日期:
2020-09-21 UTC
国别 :
中国 (CN)
星等 :
--
该卫星已列入 空间交会检测服务 Space Conjunction Data Service (SCDS) ,当前飞行风险评估等级: 无高风险
轨道信息
数据来源 国际轨道数据 AOE轨道数据
星历时间 2026-09-11T16:11:17+0800
4小时前
查看轨道信息
2026-09-10T11:00:00+0800
1天前
查看轨道信息
半长轴 7330.082km 7330.081km
偏心率 0.0005143 0.0005162
轨道倾角 66.000° 66.001°
近地点辐角 244.650° 243.578°
升交点赤经 0.780° 3.805°
平近点角 115.403° 180.457°
近地点 948.175km 948.16km
远地点 955.715km 955.728km
周期 104.093分钟 104.093分钟
每日圈数 13.833737 13.833742
详细信息
使用方式:
暂无
2D轨道图
3D轨道图
轨道高度分析图
轨道倾角分析图
轨道综合分析图
查看轨道综合分析图
与全量物体交会距离演化趋势
与全量物体交会风险概率演化趋势